Location: Santa Fe
(35.6870°N, 105.9370°W)
Time: 20:31:42
(UTC-06:00)

Amateur Radio Satellites - All Passes

Search period start: 30 April 2017 20:01
Search period end: 01 May 2017 20:01
Location: Santa Fe, 35.6870°N, 105.9370°W

Satellite Date Start Highest point End Downlink Frequencies (MHz)
Time Altitude Azimuth
M-CUBED/EXP-1 PRIME 30 Apr 20:05:41 20:08:43 21° 99° (E) 20:11:35 437.505
O/OREOS (USA 219) 30 Apr 20:16:44 20:21:15 62° 253° (WSW) 20:25:42 437.305
SRMSAT 30 Apr 20:19:38 20:23:23 17° 181° (S) 20:27:08 437.500
UWE-3 30 Apr 20:22:50 20:26:58 53° 75° (ENE) 20:31:02 435.000/436.395/437.385
CUTE 1.7 + AOD 2 30 Apr 20:28:39 20:32:23 31° 263° (W) 20:36:10 437.475
XW-2A 30 Apr 20:31:28 20:33:57 19° 264° (W) 20:36:27 145.665 - 145.685
SEEDS 30 Apr 20:39:33 20:43:25 36° 262° (W) 20:47:19 437.485
CUBEBUG 2 30 Apr 20:45:54 20:50:02 44° 261° (W) 20:54:06 437.445
STRAND 1 30 Apr 20:51:45 20:56:46 61° 286° (WNW) 21:01:48 437.568
BEESAT 3 30 Apr 21:01:53 21:04:03 14° 48° (NE) 21:06:12 437.485
ZACube-1 30 Apr 21:07:36 21:11:47 80° 257° (WSW) 21:15:56 437.345
OBJECT BX 30 Apr 21:09:35 21:11:04 12° 68° (ENE) 21:12:34 145.990 - 145.960
AO-73 30 Apr 21:11:39 21:15:49 79° 258° (WSW) 21:19:58 145.935
Oscar 11 30 Apr 21:21:17 21:25:34 75° 259° (W) 21:29:53 .
HO-68 30 Apr 21:28:32 21:32:48 17° 268° (W) 21:37:06 435.675
AAUSAT CUBESAT 2 30 Apr 21:34:34 21:37:25 18° 266° (W) 21:40:18 437.432
DELFI C3 30 Apr 21:35:13 21:38:56 39° 74° (ENE) 21:42:41 145.870
AO-85 30 Apr 21:39:15 21:43:03 41° 245° (WSW) 21:47:03 145.980
M-CUBED/EXP-1 PRIME 30 Apr 21:39:57 21:43:04 22° 296° (WNW) 21:46:00 437.505
PRISM 30 Apr 21:46:19 21:48:16 13° 93° (E) 21:50:11 437.425
FO-29 30 Apr 21:55:57 21:57:09 11° 92° (E) 21:58:23 435.910
UWE-3 30 Apr 22:03:28 22:03:40 10° 268° (W) 22:03:51 435.000/436.395/437.385
UNISAT 6 30 Apr 22:08:31 22:11:17 16° 94° (E) 22:14:03 437.425
SRMSAT 30 Apr 22:09:06 22:11:47 13° 191° (S) 22:14:28 437.500
BEESAT 3 30 Apr 22:38:01 22:41:54 49° 244° (WSW) 22:45:44 437.485
OBJECT BX 30 Apr 22:41:05 22:44:24 34° 262° (W) 22:47:45 145.990 - 145.960
BEESAT 2 30 Apr 22:47:29 22:51:32 70° 59° (ENE) 22:55:33 435.950
DELFI C3 30 Apr 23:12:05 23:13:52 13° 268° (W) 23:15:37 145.870
PRISM 30 Apr 23:19:49 23:23:42 40° 287° (WNW) 23:27:33 437.425
TIGRISAT 30 Apr 23:21:06 23:25:24 74° 284° (WNW) 23:29:47 435.000
VELOX 1 30 Apr 23:23:42 23:25:12 12° 64° (ENE) 23:26:42 145.980
ESTCUBE 1 30 Apr 23:28:11 23:32:31 50° 74° (ENE) 23:36:54 437.505/2401.250
LO-87 30 Apr 23:28:41 23:32:19 78° 259° (W) 23:35:57 145.935 - 145.965
AIST 2D 30 Apr 23:29:26 23:31:22 14° 94° (E) 23:33:18 435.315
FO-29 30 Apr 23:37:17 23:42:36 76° 285° (WNW) 23:48:26 435.910
UNISAT 6 30 Apr 23:44:06 23:48:03 36° 287° (WNW) 23:52:04 437.425
SPROUT 30 Apr 23:48:17 23:51:21 20° 69° (ENE) 23:54:25 437.525
DUCHIFAT 1 30 Apr 23:51:59 23:53:28 12° 92° (E) 23:54:57 145.980
EO-79 30 Apr 23:54:42 23:57:21 16° 94° (E) 00:00:00 145.935-145.965
DX 1 01 May 00:00:30 00:01:23 11° 64° (ENE) 00:02:16 434.975-435.025
PCSat 01 May 00:23:48 00:27:14 17° 104° (ESE) 00:30:40 145.827
POLYITAN 1 01 May 00:34:14 00:38:19 50° 100° (E) 00:42:24 437.675
BUGSAT 1 01 May 00:35:27 00:35:44 10° 92° (E) 00:36:02 437.445
QB50P2 01 May 00:41:03 00:45:15 67° 101° (ESE) 00:49:26 145.880/145.840
UKube-1 01 May 00:50:32 00:54:10 27° 70° (ENE) 00:57:49 .
VELOX 1 01 May 00:56:42 01:01:05 59° 259° (W) 01:05:31 145.980
NANOSAT C BR1 01 May 00:58:03 01:02:15 90° 91° (E) 01:06:26 145.865
AIST 2D 01 May 01:01:34 01:04:35 26° 287° (WNW) 01:07:35 435.315
50 SAT 01 May 01:04:04 01:07:33 80° 260° (W) 01:11:03 437.505
ESTCUBE 1 01 May 01:07:35 01:09:34 13° 268° (W) 01:11:34 437.505/2401.250
SPROUT 01 May 01:23:17 01:27:01 30° 263° (W) 01:30:47 437.525
DUCHIFAT 1 01 May 01:25:20 01:29:20 46° 286° (WNW) 01:33:20 145.980
EO-79 01 May 01:29:23 01:33:10 34° 288° (WNW) 01:36:57 145.935-145.965
Oscar 19 01 May 01:31:40 01:35:16 19° 94° (E) 01:38:50 437.125/150
DX 1 01 May 01:32:39 01:36:59 63° 259° (WSW) 01:41:21 434.975-435.025
NO-84 01 May 01:44:50 01:47:38 43° 44° (NE) 01:50:22 435.350 FM
BEESAT 01 May 02:00:07 02:02:17 13° 64° (ENE) 02:04:27 436.000
PCSat 01 May 02:04:49 02:10:07 54° 300° (WNW) 02:15:27 145.827
BUGSAT 1 01 May 02:07:28 02:11:20 48° 286° (WNW) 02:15:12 437.445
Gurwin Techsat 1B 01 May 02:11:29 02:15:57 27° 96° (E) 02:20:24 435.225
POLYITAN 1 01 May 02:12:02 02:13:38 12° 294° (WNW) 02:15:14 437.675
UKube-1 01 May 02:26:45 02:30:07 22° 264° (W) 02:33:30 .
ITUPSAT 1 01 May 02:41:38 02:45:55 35° 71° (ENE) 02:50:14 437.325
MOZHAYETS 4 01 May 02:46:25 02:49:27 18° 67° (ENE) 02:52:31
YUBILEINY 01 May 02:46:28 02:51:17 16° 79° (E) 02:56:06 435.215
ITAMSAT 1 01 May 03:09:27 03:11:32 12° 92° (E) 03:13:36 435.822/435.867
Oscar 19 01 May 03:09:48 03:14:45 45° 288° (WNW) 03:19:39 437.125/150
BEESAT 01 May 03:34:51 03:39:31 59° 259° (W) 03:44:12 436.000
AO-7 01 May 03:45:36 03:52:51 32° 98° (E) 04:00:04 .
CUBESAT XI-V 01 May 03:51:05 03:53:44 15° 66° (ENE) 03:56:24 437.345
Gurwin Techsat 1B 01 May 03:51:10 03:55:51 32° 291° (WNW) 04:00:31 435.225
KKS-1 01 May 03:59:14 04:02:21 19° 67° (ENE) 04:05:28 437.445
STARS 01 May 04:18:17 04:20:07 12° 65° (ENE) 04:21:58 437.465
ITUPSAT 1 01 May 04:20:18 04:23:47 20° 265° (W) 04:27:17 437.325
MOZHAYETS 4 01 May 04:22:05 04:26:18 37° 262° (W) 04:30:33
SO-50 01 May 04:31:55 04:35:16 20° 110° (ESE) 04:38:36 436.795
RS-15 01 May 04:33:22 04:35:37 11° 94° (E) 04:37:52 29.354- 29.394
YUBILEINY 01 May 04:38:09 04:46:50 85° 276° (W) 04:55:36 435.215
ITAMSAT 1 01 May 04:46:15 04:51:23 66° 286° (WNW) 04:56:30 435.822/435.867
CUBESAT XI-V 01 May 05:26:10 05:30:39 48° 261° (W) 05:35:11 437.345
ISS 01 May 05:34:08 05:35:53 14° 128° (SE) 05:37:37 437.550
KKS-1 01 May 05:34:32 05:38:37 35° 262° (W) 05:42:43 437.445
AO-7 01 May 05:37:49 05:45:45 51° 294° (WNW) 05:53:41 .
DOVE 4 01 May 05:46:14 05:47:37 11° 90° (E) 05:49:00 437.250
STARS 01 May 05:51:40 05:55:58 53° 259° (W) 06:00:17 437.465
Tancredo 1 01 May 06:07:44 06:10:42 46° 134° (SE) 06:13:41 437.200
SO-50 01 May 06:11:09 06:15:27 38° 305° (NW) 06:19:44 436.795
STRAND 1 01 May 06:28:07 06:30:58 15° 64° (ENE) 06:33:50 437.568
CUTE-I 01 May 06:31:00 06:35:13 23° 95° (E) 06:39:24 437.470
RS-15 01 May 06:33:48 06:45:31 65° 112° (ESE) 06:57:38 29.354- 29.394
YUBILEINY 01 May 06:40:32 06:44:56 15° 296° (WNW) 06:49:22 435.215
M-CUBED/EXP-1 PRIME 01 May 06:47:47 06:51:24 23° 64° (ENE) 06:55:01 437.505
XW-2D 01 May 06:56:24 07:00:09 51° 99° (E) 07:03:53 145.860 - 145.880
KAITUO 1B 01 May 07:00:46 07:04:24 43° 99° (E) 07:08:02 145.475/437.950
XW-2B 01 May 07:03:27 07:07:15 62° 101° (E) 07:11:02 145.730 - 145.750
ISS 01 May 07:08:55 07:12:03 45° 322° (NW) 07:15:13 437.550
HO-68 01 May 07:10:29 07:14:37 16° 92° (E) 07:18:43 435.675
XW-2C 01 May 07:15:35 07:19:26 87° 285° (WNW) 07:23:16 145.795 - 145.815
LilacSat-2 01 May 07:20:28 07:24:19 71° 283° (WNW) 07:28:10 437.200
DOVE 4 01 May 07:21:23 07:25:41 49° 286° (WNW) 07:29:44 437.250
NUDT-PHONESAT 01 May 07:32:56 07:36:38 66° 284° (WNW) 07:40:20 437.300
XW-2F 01 May 07:37:20 07:40:59 45° 285° (WNW) 07:44:39 145.980 - 146.000
Tancredo 1 01 May 07:44:39 07:46:45 17° 330° (NNW) 07:48:50 437.200
XW-2A 01 May 07:55:24 07:58:16 25° 97° (E) 08:01:08 145.665 - 145.685
STRAND 1 01 May 08:04:37 08:09:37 57° 259° (WSW) 08:14:39 437.568
CUTE-I 01 May 08:10:27 08:15:17 37° 290° (WNW) 08:20:07 437.470
CUTE 1.7 + AOD 2 01 May 08:15:42 08:19:55 53° 100° (E) 08:24:05 437.475
UWE-3 01 May 08:16:34 08:18:37 13° 93° (E) 08:20:40 435.000/436.395/437.385
M-CUBED/EXP-1 PRIME 01 May 08:21:20 08:25:33 35° 258° (WSW) 08:29:49 437.505
SEEDS 01 May 08:25:49 08:29:53 43° 99° (E) 08:33:55 437.485
KAITUO 1B 01 May 08:36:58 08:37:59 11° 293° (WNW) 08:39:00 145.475/437.950
CUBEBUG 2 01 May 08:39:03 08:43:04 42° 99° (E) 08:47:10 437.445
RS-15 01 May 08:47:39 08:58:43 39° 315° (NW) 09:10:05 29.354- 29.394
O/OREOS (USA 219) 01 May 08:47:46 08:51:14 21° 101° (E) 08:54:43 437.305
HO-68 01 May 08:55:45 09:02:57 79° 287° (WNW) 09:10:08 435.675
ZACube-1 01 May 08:58:55 09:02:23 23° 96° (E) 09:05:54 437.345
AO-73 01 May 09:02:39 09:06:06 23° 96° (E) 09:09:36 145.935
UNISAT 6 01 May 09:06:50 09:07:36 10° 65° (ENE) 09:08:23 437.425
Oscar 11 01 May 09:11:49 09:15:23 24° 96° (E) 09:18:56 .
AAUSAT CUBESAT 2 01 May 09:17:52 09:22:05 85° 102° (ESE) 09:26:15 437.432
XW-2A 01 May 09:29:05 09:30:46 13° 291° (WNW) 09:32:25 145.665 - 145.685
FO-29 01 May 09:47:05 09:52:24 32° 70° (ENE) 09:57:15 435.910
UWE-3 01 May 09:51:11 09:55:13 43° 286° (WNW) 09:59:19 435.000/436.395/437.385
CUTE 1.7 + AOD 2 01 May 09:53:39 09:55:14 12° 294° (WNW) 09:56:49 437.475
SEEDS 01 May 10:02:56 10:05:09 14° 293° (WNW) 10:07:22 437.485
PRISM 01 May 10:05:23 10:09:32 90° 75° (ENE) 10:13:44 437.425
OBJECT BX 01 May 10:12:52 10:15:47 22° 96° (E) 10:18:41 145.990 - 145.960
TIGRISAT 01 May 10:16:36 10:20:54 65° 76° (ENE) 10:25:09 435.000
CUBEBUG 2 01 May 10:17:09 10:19:20 14° 292° (WNW) 10:21:31 437.445
O/OREOS (USA 219) 01 May 10:26:21 10:30:25 31° 296° (WNW) 10:34:31 437.305
ZACube-1 01 May 10:35:04 10:38:34 25° 289° (WNW) 10:42:07 437.345
AO-73 01 May 10:38:43 10:42:14 25° 289° (WNW) 10:45:48 145.935
UNISAT 6 01 May 10:39:29 10:43:47 60° 259° (W) 10:48:02 437.425
HO-68 01 May 10:46:22 10:49:31 13° 304° (NW) 10:52:39 435.675
Oscar 11 01 May 10:47:52 10:51:24 25° 290° (WNW) 10:54:56 .
DELFI C3 01 May 10:49:23 10:53:23 81° 281° (WNW) 10:57:21 145.870
PCSat 01 May 10:55:26 11:00:51 64° 62° (ENE) 11:06:12 145.827
RS-15 01 May 11:09:30 11:16:21 16° 347° (NNW) 11:23:11 29.354- 29.394
POLYITAN 1 01 May 11:24:12 11:27:40 25° 70° (ENE) 11:31:07 437.675
ESTCUBE 1 01 May 11:25:12 11:27:24 13° 92° (E) 11:29:35 437.505/2401.250
QB50P2 01 May 11:30:45 11:34:32 33° 72° (ENE) 11:38:18 145.880/145.840
FO-29 01 May 11:32:00 11:37:24 31° 262° (W) 11:42:20 435.910
AIST 2D 01 May 11:32:20 11:35:44 61° 77° (ENE) 11:39:11 435.315
OBJECT BX 01 May 11:46:42 11:49:18 19° 290° (WNW) 11:51:54 145.990 - 145.960
NANOSAT C BR1 01 May 11:47:00 11:50:57 42° 73° (ENE) 11:54:56 145.865
AO-85 01 May 11:50:33 11:54:52 65° 301° (WNW) 11:58:56 145.980
DUCHIFAT 1 01 May 12:13:34 12:17:45 83° 74° (ENE) 12:21:56 145.980
EO-79 01 May 12:18:04 12:22:16 70° 259° (W) 12:26:28 145.935-145.965
BEESAT 3 01 May 12:24:37 12:28:25 52° 116° (ESE) 12:32:17 437.485
LO-87 01 May 12:32:00 12:35:19 38° 286° (WNW) 12:38:36 145.935 - 145.965
Tancredo 1 01 May 12:35:58 12:38:07 17° 30° (NNE) 12:40:17 437.200
BEESAT 2 01 May 12:36:31 12:39:42 24° 111° (ESE) 12:42:54 435.950
PCSat 01 May 12:40:48 12:43:37 14° 257° (WSW) 12:46:26 145.827
Oscar 19 01 May 12:45:46 12:49:35 21° 66° (ENE) 12:53:25 437.125/150
VELOX 1 01 May 12:49:50 12:53:45 31° 97° (E) 12:57:38 145.980
BUGSAT 1 01 May 12:53:36 12:57:43 73° 75° (ENE) 13:01:48 437.445
ESTCUBE 1 01 May 13:00:02 13:04:25 48° 286° (WNW) 13:08:46 437.505/2401.250
POLYITAN 1 01 May 13:00:06 13:03:22 22° 264° (W) 13:06:38 437.675
QB50P2 01 May 13:07:38 13:10:22 17° 266° (W) 13:13:06 145.880/145.840
SPROUT 01 May 13:11:09 13:15:18 53° 100° (E) 13:19:26 437.525
DX 1 01 May 13:24:05 13:27:46 26° 97° (E) 13:31:24 434.975-435.025
NANOSAT C BR1 01 May 13:24:57 13:26:51 13° 267° (W) 13:28:44 145.865
RS-15 01 May 13:27:39 13:36:04 20° 25° (NNE) 13:44:17 29.354- 29.394
Gurwin Techsat 1B 01 May 13:29:38 13:34:20 33° 69° (ENE) 13:39:03 435.225
ISS 01 May 13:39:02 13:42:13 50° 39° (NE) 13:45:23 437.550
50 SAT 01 May 14:03:06 14:06:27 47° 285° (WNW) 14:09:46 437.505
BEESAT 3 01 May 14:04:21 14:06:18 13° 312° (NW) 14:08:17 437.485
Tancredo 1 01 May 14:11:11 14:14:08 43° 226° (SW) 14:17:05 437.200
BEESAT 2 01 May 14:14:03 14:17:20 24° 307° (NW) 14:20:40 435.950
UKube-1 01 May 14:15:22 14:19:41 74° 101° (ESE) 14:23:58 .
Oscar 19 01 May 14:23:44 14:28:34 41° 261° (W) 14:33:27 437.125/150
ITAMSAT 1 01 May 14:24:25 14:27:25 16° 64° (ENE) 14:30:27 435.822/435.867
VELOX 1 01 May 14:26:44 14:29:58 20° 292° (WNW) 14:33:11 145.980
AO-7 01 May 14:41:37 14:48:54 36° 62° (ENE) 14:56:09 .
SO-50 01 May 14:44:42 14:49:13 83° 59° (ENE) 14:53:44 436.795
ITUPSAT 1 01 May 14:47:19 14:48:37 11° 92° (E) 14:49:55 437.325
SPROUT 01 May 14:49:21 14:50:41 11° 295° (WNW) 14:52:03 437.525
YUBILEINY 01 May 14:52:11 15:00:25 42° 76° (ENE) 15:08:36 435.215
JUGNU 01 May 14:58:20 15:00:29 12° 168° (SSE) 15:02:38 437.505
DX 1 01 May 15:00:22 15:03:47 23° 291° (WNW) 15:07:10 434.975-435.025
Gurwin Techsat 1B 01 May 15:09:50 15:14:15 27° 264° (W) 15:18:41 435.225
ISS 01 May 15:16:58 15:18:20 12° 233° (SW) 15:19:43 437.550
BEESAT 01 May 15:37:47 15:42:19 43° 99° (E) 15:46:50 436.000
RS-15 01 May 15:39:58 15:52:02 59° 54° (NE) 16:03:28 29.354- 29.394
ITAMSAT 1 01 May 16:01:17 16:06:22 57° 259° (W) 16:11:29 435.822/435.867
MOZHAYETS 4 01 May 16:19:24 16:23:59 61° 101° (E) 16:28:33
ITUPSAT 1 01 May 16:22:03 16:26:48 64° 286° (WNW) 16:31:32 437.325
AO-7 01 May 16:33:29 16:41:22 47° 259° (WSW) 16:49:18 .
JUGNU 01 May 16:45:09 16:48:42 16° 178° (S) 16:52:15 437.505
DOVE 4 01 May 16:48:26 16:50:28 12° 64° (ENE) 16:52:29 437.250
YUBILEINY 01 May 16:49:11 16:57:00 38° 274° (W) 17:04:50 435.215
NO-84 01 May 16:59:25 17:02:43 24° 126° (SE) 17:05:50 435.350 FM
BEESAT 01 May 17:16:35 17:19:43 18° 294° (WNW) 17:22:51 436.000
CUBESAT XI-V 01 May 17:25:22 17:29:59 51° 100° (E) 17:34:32 437.345
KKS-1 01 May 17:27:50 17:32:10 53° 100° (E) 17:36:29 437.445
XW-2D 01 May 17:35:54 17:38:16 16° 69° (ENE) 17:40:39 145.860 - 145.880
KAITUO 1B 01 May 17:39:32 17:41:21 13° 68° (ENE) 17:43:12 145.475/437.950
XW-2B 01 May 17:42:39 17:45:19 19° 70° (ENE) 17:48:01 145.730 - 145.750
STARS 01 May 17:43:58 17:47:53 32° 98° (E) 17:51:47 437.465
CUTE-I 01 May 17:49:53 17:54:28 30° 68° (ENE) 17:59:02 437.470
RS-15 01 May 17:53:17 18:03:53 38° 255° (WSW) 18:14:04 29.354- 29.394
XW-2C 01 May 17:54:17 17:57:27 27° 72° (ENE) 18:00:38 145.795 - 145.815
MOZHAYETS 4 01 May 17:58:49 18:00:34 12° 295° (WNW) 18:02:20
LilacSat-2 01 May 17:59:29 18:02:52 33° 73° (ENE) 18:06:18 437.200
NUDT-PHONESAT 01 May 18:09:25 18:12:41 31° 73° (ENE) 18:15:58 437.300
XW-2F 01 May 18:14:59 18:18:34 48° 75° (ENE) 18:22:11 145.980 - 146.000
SRMSAT 01 May 18:18:44 18:21:58 15° 172° (S) 18:25:13 437.500
DOVE 4 01 May 18:22:13 18:27:30 76° 258° (WSW) 18:32:41 437.250
JUGNU 01 May 18:33:56 18:36:56 14° 188° (S) 18:39:57 437.505
NO-84 01 May 18:36:42 18:40:11 31° 318° (NW) 18:43:26 435.350 FM
O/OREOS (USA 219) 01 May 18:59:59 19:03:50 26° 62° (ENE) 19:07:37 437.305
CUBESAT XI-V 01 May 19:04:20 19:06:52 15° 294° (WNW) 19:09:22 437.345
CUTE 1.7 + AOD 2 01 May 19:05:44 19:09:12 25° 71° (ENE) 19:12:42 437.475
KKS-1 01 May 19:06:20 19:08:14 13° 295° (WNW) 19:10:07 437.445
XW-2D 01 May 19:09:02 19:12:13 27° 264° (W) 19:15:26 145.860 - 145.880
KAITUO 1B 01 May 19:11:43 19:15:03 32° 263° (W) 19:18:23 145.475/437.950
SEEDS 01 May 19:15:08 19:18:15 21° 69° (ENE) 19:21:23 437.485
XW-2B 01 May 19:16:22 19:19:21 23° 264° (W) 19:22:21 145.730 - 145.750
HO-68 01 May 19:20:42 19:27:38 58° 70° (ENE) 19:34:38 435.675
STARS 01 May 19:20:53 19:23:58 19° 292° (WNW) 19:27:02 437.465
XW-2C 01 May 19:29:20 19:31:39 16° 266° (W) 19:33:58 145.795 - 145.815
CUTE-I 01 May 19:29:46 19:34:24 30° 263° (W) 19:39:02 437.470
CUBEBUG 2 01 May 19:34:43 19:38:12 25° 71° (ENE) 19:41:38 437.445
LilacSat-2 01 May 19:35:31 19:37:15 13° 267° (W) 19:39:00 437.200
NUDT-PHONESAT 01 May 19:45:02 19:46:40 13° 267° (W) 19:48:19 437.300
ZACube-1 01 May 19:53:34 19:55:23 13° 67° (ENE) 19:57:13 437.345
AO-73 01 May 19:57:02 19:58:47 12° 67° (ENE) 20:00:31 145.935
